📊 Raw Sensor Data

Showing records 33976 to 34000 of 84,817 total

ID Distance (ft) Battery V Battery A Int Temp (°F) Int Humid (%) Ext Temp (°F) Solar V RSSI SNR Time Stamp
50854 15.6 3.89 0 77 41 82 5.10 -71 7 09/01/2025 09:30 AM
50853 15.5 3.89 9 75 41 76 5.10 -71 8 09/01/2025 09:15 AM
50852 15.5 3.89 0 74 41 77 5.10 -72 7 09/01/2025 09:00 AM
50851 15.5 4.06 10 73 41 76 5.10 -71 8 09/01/2025 08:45 AM
50850 15.7 3.95 10 71 41 79 5.10 -71 8 09/01/2025 08:30 AM
50849 15.7 4.09 107 69 40 77 4.50 -71 8 09/01/2025 08:15 AM
50848 15.5 4.03 61 67 41 74 4.50 -72 8 09/01/2025 08:00 AM
50847 15.5 3.94 48 63 42 71 4.50 -72 7 09/01/2025 07:45 AM
50846 15.4 3.93 10 60 43 68 4.50 -72 7 09/01/2025 07:30 AM
50845 15.4 3.83 5 58 43 65 4.50 -72 8 09/01/2025 07:15 AM
50844 15.3 3.81 -5 57 43 59 4.50 -72 8 09/01/2025 07:00 AM
50843 15.2 3.80 -10 56 44 57 4.50 -71 8 09/01/2025 06:45 AM
50842 15.2 3.87 -5 57 44 59 1.70 -71 8 09/01/2025 06:30 AM
50841 15.2 3.87 -5 57 44 58 0.10 -72 8 09/01/2025 06:15 AM
50840 15.2 3.81 -5 57 43 59 0.00 -71 8 09/01/2025 06:00 AM
50839 15.2 3.81 -5 57 44 59 0.00 -70 8 09/01/2025 05:45 AM
50838 15.2 3.81 -5 57 44 58 0.00 -71 7 09/01/2025 05:30 AM
50837 15.2 3.81 -5 57 44 59 0.00 -71 8 09/01/2025 05:15 AM
50836 15.2 3.81 -5 58 44 58 0.00 -71 7 09/01/2025 05:00 AM
50835 15.2 3.81 -5 59 44 62 0.00 -71 8 09/01/2025 04:45 AM
50834 15.2 3.87 -5 59 44 62 0.00 -71 8 09/01/2025 04:30 AM
50833 15.3 3.87 -5 59 44 62 0.00 -71 8 09/01/2025 04:15 AM
50832 15.3 3.87 -5 60 44 63 0.00 -70 8 09/01/2025 04:00 AM
50831 15.2 3.81 -35 60 43 62 0.00 -71 7 09/01/2025 03:45 AM
50830 15.2 3.82 -5 58 44 61 0.00 -72 8 09/01/2025 03:15 AM